Year,Month,Day,Hour,Minute,Value (Times are PST for temperature in C)
2018,05,17,10,02,13.40
2018,05,17,10,03,13.40
2018,05,17,10,04,13.40
2018,05,17,10,05,13.40
2018,05,17,10,06,13.40
2018,05,17,10,07,13.40
2018,05,17,10,08,13.50
2018,05,17,10,09,13.60
2018,05,17,10,10,13.60
2018,05,17,10,11,13.70
2018,05,17,10,12,13.80
2018,05,17,10,13,13.80
2018,05,17,10,14,13.80
2018,05,17,10,15,13.80
2018,05,17,10,16,13.80
2018,05,17,10,17,13.80
2018,05,17,10,18,13.80
2018,05,17,10,19,13.80
2018,05,17,10,20,13.80
2018,05,17,10,21,13.70
2018,05,17,10,22,13.70
2018,05,17,10,23,13.70
2018,05,17,10,24,13.80
2018,05,17,10,25,13.80
2018,05,17,10,26,13.80
2018,05,17,10,27,13.90
2018,05,17,10,28,13.90
2018,05,17,10,29,13.90
2018,05,17,10,30,13.90
2018,05,17,10,31,14.00
2018,05,17,10,32,14.00
2018,05,17,10,33,14.10
2018,05,17,10,34,14.10
2018,05,17,10,35,14.20
2018,05,17,10,36,14.20
2018,05,17,10,37,14.20
2018,05,17,10,38,14.20
2018,05,17,10,39,14.30
2018,05,17,10,40,14.30
2018,05,17,10,41,14.30
2018,05,17,10,42,14.30
2018,05,17,10,43,14.30
2018,05,17,10,44,14.30
2018,05,17,10,45,14.30
2018,05,17,10,46,14.20
2018,05,17,10,47,14.10
2018,05,17,10,48,14.00
2018,05,17,10,49,14.00
2018,05,17,10,50,14.00
2018,05,17,10,51,14.00
2018,05,17,10,52,14.00
2018,05,17,10,53,13.90
2018,05,17,10,54,13.80
2018,05,17,10,55,13.80
2018,05,17,10,56,13.80
2018,05,17,10,57,13.90
2018,05,17,10,58,14.00
2018,05,17,10,59,14.00
2018,05,17,11,00,14.10
2018,05,17,11,01,14.10
2018,05,17,11,02,14.00
2018,05,17,11,03,14.00
2018,05,17,11,04,13.90
2018,05,17,11,05,13.80
2018,05,17,11,06,13.80
2018,05,17,11,07,13.80
2018,05,17,11,08,13.80
2018,05,17,11,09,13.70
2018,05,17,11,10,13.70
2018,05,17,11,11,13.70
2018,05,17,11,12,13.70
2018,05,17,11,13,13.70
2018,05,17,11,14,13.60
2018,05,17,11,15,13.60
2018,05,17,11,16,13.60
2018,05,17,11,17,13.60
2018,05,17,11,18,13.60
2018,05,17,11,19,13.60
2018,05,17,11,20,13.60
2018,05,17,11,21,13.60
2018,05,17,11,22,13.60
2018,05,17,11,23,13.60
2018,05,17,11,24,13.60
2018,05,17,11,25,13.70
2018,05,17,11,26,13.70
2018,05,17,11,27,13.70
2018,05,17,11,28,13.70
2018,05,17,11,29,13.70
2018,05,17,11,30,13.70
2018,05,17,11,31,13.70
2018,05,17,11,32,13.70
2018,05,17,11,33,13.60
2018,05,17,11,34,13.60
2018,05,17,11,35,13.60
2018,05,17,11,36,13.60
2018,05,17,11,37,13.60
2018,05,17,11,38,13.60
2018,05,17,11,39,13.50
2018,05,17,11,40,13.50
2018,05,17,11,41,13.40
2018,05,17,11,42,13.40
2018,05,17,11,43,13.50
2018,05,17,11,44,13.50
2018,05,17,11,45,13.60
2018,05,17,11,46,13.60
2018,05,17,11,47,13.60
2018,05,17,11,48,13.60
2018,05,17,11,49,13.70
2018,05,17,11,50,13.60
2018,05,17,11,51,13.60
2018,05,17,11,52,13.60
2018,05,17,11,53,13.60
2018,05,17,11,54,13.60
2018,05,17,11,55,13.60
2018,05,17,11,56,13.60
2018,05,17,11,57,13.60
2018,05,17,11,58,13.60
2018,05,17,11,59,13.60
2018,05,17,12,00,13.60
2018,05,17,12,01,13.50
2018,05,17,12,02,13.50
2018,05,17,12,03,13.60
2018,05,17,12,04,13.60
2018,05,17,12,05,13.60
2018,05,17,12,06,13.60
2018,05,17,12,07,13.50
2018,05,17,12,08,13.50
2018,05,17,12,09,13.40
2018,05,17,12,10,13.40
2018,05,17,12,11,13.40
2018,05,17,12,12,13.50
2018,05,17,12,13,13.50
2018,05,17,12,14,13.50
2018,05,17,12,15,13.60
2018,05,17,12,16,13.60
2018,05,17,12,17,13.60
2018,05,17,12,18,13.60
2018,05,17,12,19,13.60
2018,05,17,12,20,13.50
2018,05,17,12,21,13.50
2018,05,17,12,22,13.40
2018,05,17,12,23,13.40
2018,05,17,12,24,13.40
2018,05,17,12,25,13.50
2018,05,17,12,26,13.60
2018,05,17,12,27,13.60
2018,05,17,12,28,13.70
2018,05,17,12,29,13.70
2018,05,17,12,30,13.70
2018,05,17,12,31,13.70
2018,05,17,12,32,13.70
2018,05,17,12,33,13.70
2018,05,17,12,34,13.70
2018,05,17,12,35,13.70
2018,05,17,12,36,13.70
2018,05,17,12,37,13.70
2018,05,17,12,38,13.70
2018,05,17,12,39,13.70
2018,05,17,12,40,13.60
2018,05,17,12,41,13.60
2018,05,17,12,42,13.70
2018,05,17,12,43,13.70
2018,05,17,12,44,13.70
2018,05,17,12,45,13.70
2018,05,17,12,46,13.70
2018,05,17,12,47,13.70
2018,05,17,12,48,13.70
2018,05,17,12,49,13.70
2018,05,17,12,50,13.70
2018,05,17,12,51,13.70
2018,05,17,12,52,13.60
2018,05,17,12,53,13.70
2018,05,17,12,54,13.70
2018,05,17,12,55,13.70
2018,05,17,12,56,13.70
2018,05,17,12,57,13.80
2018,05,17,12,58,13.80
2018,05,17,12,59,13.80
2018,05,17,13,00,13.80
2018,05,17,13,01,13.80
2018,05,17,13,02,13.80
2018,05,17,13,03,13.80
2018,05,17,13,04,13.80
2018,05,17,13,05,13.80
2018,05,17,13,06,13.70
2018,05,17,13,07,13.70
2018,05,17,13,08,13.70
2018,05,17,13,09,13.70
2018,05,17,13,10,13.80
2018,05,17,13,11,13.80
2018,05,17,13,12,13.80
2018,05,17,13,13,13.80
2018,05,17,13,14,13.80
2018,05,17,13,15,13.80
2018,05,17,13,16,13.80
2018,05,17,13,17,13.80
2018,05,17,13,18,13.80
2018,05,17,13,19,13.80
2018,05,17,13,20,13.80
2018,05,17,13,21,13.80
2018,05,17,13,22,13.80
2018,05,17,13,23,13.80
2018,05,17,13,24,13.80
2018,05,17,13,25,13.80
2018,05,17,13,26,13.80
2018,05,17,13,27,13.80
2018,05,17,13,28,13.80
2018,05,17,13,29,13.80
2018,05,17,13,30,13.80
2018,05,17,13,31,13.80
2018,05,17,13,32,13.70
2018,05,17,13,33,13.70
2018,05,17,13,34,13.70
2018,05,17,13,35,13.70
2018,05,17,13,36,13.70
2018,05,17,13,37,13.60
2018,05,17,13,38,13.60
2018,05,17,13,39,13.70
2018,05,17,13,40,13.70
2018,05,17,13,41,13.70
2018,05,17,13,42,13.60
2018,05,17,13,43,13.60
2018,05,17,13,44,13.60
2018,05,17,13,45,13.50
2018,05,17,13,46,13.40
2018,05,17,13,47,13.40
2018,05,17,13,48,13.40
2018,05,17,13,49,13.30
2018,05,17,13,50,13.40
2018,05,17,13,51,13.40
2018,05,17,13,52,13.40
2018,05,17,13,53,13.40
2018,05,17,13,54,13.40
2018,05,17,13,55,13.40
2018,05,17,13,56,13.40
2018,05,17,13,57,13.50
2018,05,17,13,58,13.50
2018,05,17,13,59,13.50
2018,05,17,14,00,13.60
2018,05,17,14,01,13.60
2018,05,17,14,02,13.60
2018,05,17,14,03,13.60
2018,05,17,14,04,13.60
2018,05,17,14,05,13.50
2018,05,17,14,06,13.50
2018,05,17,14,07,13.50
2018,05,17,14,08,13.50
2018,05,17,14,09,13.50
2018,05,17,14,10,13.50
2018,05,17,14,11,13.50
2018,05,17,14,12,13.50
2018,05,17,14,13,13.60
2018,05,17,14,14,13.60
2018,05,17,14,15,13.60
2018,05,17,14,16,13.60
2018,05,17,14,17,13.60
2018,05,17,14,18,13.70
2018,05,17,14,19,13.70
2018,05,17,14,20,13.60
2018,05,17,14,21,13.60
2018,05,17,14,22,13.60
2018,05,17,14,23,13.50
2018,05,17,14,24,13.40
2018,05,17,14,25,13.40
2018,05,17,14,26,13.40
2018,05,17,14,27,13.40
2018,05,17,14,28,13.40
2018,05,17,14,29,13.40
2018,05,17,14,30,13.40
2018,05,17,14,31,13.40
2018,05,17,14,32,13.30
2018,05,17,14,33,13.30
2018,05,17,14,34,13.40
2018,05,17,14,35,13.40
2018,05,17,14,36,13.40
2018,05,17,14,37,13.50
2018,05,17,14,38,13.50
2018,05,17,14,39,13.50
2018,05,17,14,40,13.60
2018,05,17,14,41,13.60
2018,05,17,14,42,13.60
2018,05,17,14,43,13.70
2018,05,17,14,44,13.70
2018,05,17,14,45,13.70
2018,05,17,14,46,13.60
2018,05,17,14,47,13.60
2018,05,17,14,48,13.60
2018,05,17,14,49,13.60
2018,05,17,14,50,13.60
2018,05,17,14,51,13.60
2018,05,17,14,52,13.60
2018,05,17,14,53,13.60
2018,05,17,14,54,13.60
2018,05,17,14,55,13.60
2018,05,17,14,56,13.60
2018,05,17,14,57,13.60
2018,05,17,14,58,13.60
2018,05,17,14,59,13.60
2018,05,17,15,00,13.60
2018,05,17,15,01,13.70
2018,05,17,15,02,13.60
2018,05,17,15,03,13.70
2018,05,17,15,04,13.70
2018,05,17,15,05,13.70
2018,05,17,15,06,13.70
2018,05,17,15,07,13.70
2018,05,17,15,08,13.70
2018,05,17,15,09,13.70
2018,05,17,15,10,13.70
2018,05,17,15,11,13.70
2018,05,17,15,12,13.80
2018,05,17,15,13,13.80
2018,05,17,15,14,13.80
2018,05,17,15,15,13.80
2018,05,17,15,16,13.90
2018,05,17,15,17,13.90
2018,05,17,15,18,13.90
2018,05,17,15,19,13.90
2018,05,17,15,20,13.90
2018,05,17,15,21,13.90
2018,05,17,15,22,13.80
2018,05,17,15,23,13.90
2018,05,17,15,24,13.90
2018,05,17,15,25,14.00
2018,05,17,15,26,14.00
2018,05,17,15,27,13.90
2018,05,17,15,28,13.80
2018,05,17,15,29,13.80
2018,05,17,15,30,13.80
2018,05,17,15,31,13.80
2018,05,17,15,32,13.80
2018,05,17,15,33,13.80
2018,05,17,15,34,13.80
2018,05,17,15,35,13.90
2018,05,17,15,36,13.90
2018,05,17,15,37,13.90
2018,05,17,15,38,13.90
2018,05,17,15,39,13.90
2018,05,17,15,40,13.90
2018,05,17,15,41,13.90
2018,05,17,15,42,13.90
2018,05,17,15,43,13.90
2018,05,17,15,44,13.90
2018,05,17,15,45,13.90
2018,05,17,15,46,13.90
2018,05,17,15,47,13.90
2018,05,17,15,48,13.90
2018,05,17,15,49,13.90
2018,05,17,15,50,13.90
2018,05,17,15,51,13.90
2018,05,17,15,52,13.80
2018,05,17,15,53,13.80
2018,05,17,15,54,13.80
2018,05,17,15,55,13.70
2018,05,17,15,56,13.70
2018,05,17,15,57,13.70
2018,05,17,15,58,13.60
2018,05,17,15,59,13.60
2018,05,17,16,00,13.60
2018,05,17,16,01,13.60
2018,05,17,16,02,13.60
2018,05,17,16,03,13.60
2018,05,17,16,04,13.50
2018,05,17,16,05,13.50
2018,05,17,16,06,13.50
2018,05,17,16,07,13.60
2018,05,17,16,08,13.60
2018,05,17,16,09,13.60
2018,05,17,16,10,13.50
2018,05,17,16,11,13.50
2018,05,17,16,12,13.50
2018,05,17,16,13,13.50
2018,05,17,16,14,13.50
2018,05,17,16,15,13.40
2018,05,17,16,16,13.40
2018,05,17,16,17,13.40
2018,05,17,16,18,13.40
2018,05,17,16,19,13.50
2018,05,17,16,20,13.50
2018,05,17,16,21,13.60
2018,05,17,16,22,13.60
2018,05,17,16,23,13.60
2018,05,17,16,24,13.60
2018,05,17,16,25,13.60
2018,05,17,16,26,13.60
2018,05,17,16,27,13.70
2018,05,17,16,28,13.70
2018,05,17,16,29,13.70
2018,05,17,16,30,13.70
2018,05,17,16,31,13.70
2018,05,17,16,32,13.70
2018,05,17,16,33,13.70
2018,05,17,16,34,13.70
2018,05,17,16,35,13.70
2018,05,17,16,36,13.60
2018,05,17,16,37,13.60
2018,05,17,16,38,13.60
2018,05,17,16,39,13.60
2018,05,17,16,40,13.60
2018,05,17,16,41,13.60
2018,05,17,16,42,13.60
2018,05,17,16,43,13.60
2018,05,17,16,44,13.50
2018,05,17,16,45,13.50
2018,05,17,16,46,13.60
2018,05,17,16,47,13.60
2018,05,17,16,48,13.60
2018,05,17,16,49,13.60
2018,05,17,16,50,13.60
2018,05,17,16,51,13.60
2018,05,17,16,52,13.60
2018,05,17,16,53,13.70
2018,05,17,16,54,13.70
2018,05,17,16,55,13.60
2018,05,17,16,56,13.70
2018,05,17,16,57,13.70
2018,05,17,16,58,13.70
2018,05,17,16,59,13.80
2018,05,17,17,00,13.80
2018,05,17,17,01,13.80
2018,05,17,17,02,13.80
2018,05,17,17,03,13.90
2018,05,17,17,04,14.00
2018,05,17,17,05,14.10
2018,05,17,17,06,14.20
2018,05,17,17,07,14.40
2018,05,17,17,08,14.40
2018,05,17,17,09,14.40
2018,05,17,17,10,14.40
2018,05,17,17,11,14.30
2018,05,17,17,12,14.30
2018,05,17,17,13,14.30
2018,05,17,17,14,14.40
2018,05,17,17,15,14.40
2018,05,17,17,16,14.40
2018,05,17,17,17,14.50
2018,05,17,17,18,14.60
2018,05,17,17,19,14.60
2018,05,17,17,20,14.60
2018,05,17,17,21,14.60
2018,05,17,17,22,14.70
2018,05,17,17,23,14.70
2018,05,17,17,24,14.70
2018,05,17,17,25,14.60
2018,05,17,17,26,14.50
2018,05,17,17,27,14.50
2018,05,17,17,28,14.40
2018,05,17,17,29,14.40
2018,05,17,17,30,14.40
2018,05,17,17,31,14.40
2018,05,17,17,32,14.40
2018,05,17,17,33,14.30
2018,05,17,17,34,14.30
2018,05,17,17,35,14.30
2018,05,17,17,36,14.40
2018,05,17,17,37,14.40
2018,05,17,17,38,14.40
2018,05,17,17,39,14.30
2018,05,17,17,40,14.30
2018,05,17,17,41,14.30
2018,05,17,17,42,14.40
2018,05,17,17,43,14.40
2018,05,17,17,44,14.40
2018,05,17,17,45,14.40
2018,05,17,17,46,14.40
2018,05,17,17,47,14.40
2018,05,17,17,48,14.40
2018,05,17,17,49,14.40
2018,05,17,17,50,14.40
2018,05,17,17,51,14.30
2018,05,17,17,52,14.30
2018,05,17,17,53,14.30
2018,05,17,17,54,14.30
2018,05,17,17,55,14.20
2018,05,17,17,56,14.20
2018,05,17,17,57,14.10
2018,05,17,17,58,14.10
2018,05,17,17,59,14.10
2018,05,17,18,00,14.00
2018,05,17,18,01,14.00
2018,05,17,18,02,13.90
2018,05,17,18,03,13.80
2018,05,17,18,04,13.80
2018,05,17,18,05,13.80
2018,05,17,18,06,13.80
2018,05,17,18,07,13.80
2018,05,17,18,08,13.80
2018,05,17,18,09,13.70
2018,05,17,18,10,13.70
2018,05,17,18,11,13.80
2018,05,17,18,12,13.80
2018,05,17,18,13,13.80
2018,05,17,18,14,13.80
2018,05,17,18,15,13.80
2018,05,17,18,16,13.70
2018,05,17,18,17,13.70
2018,05,17,18,18,13.70
2018,05,17,18,19,13.70
2018,05,17,18,20,13.70
2018,05,17,18,21,13.70
2018,05,17,18,22,13.70
2018,05,17,18,23,13.60
2018,05,17,18,24,13.60
2018,05,17,18,25,13.60
2018,05,17,18,26,13.60
2018,05,17,18,27,13.60
2018,05,17,18,28,13.60
2018,05,17,18,29,13.60
2018,05,17,18,30,13.60
2018,05,17,18,31,13.50
2018,05,17,18,32,13.50
2018,05,17,18,33,13.50
2018,05,17,18,34,13.40
2018,05,17,18,35,13.40
2018,05,17,18,36,13.40
2018,05,17,18,37,13.40
2018,05,17,18,38,13.40
2018,05,17,18,39,13.40
2018,05,17,18,40,13.40
2018,05,17,18,41,13.40
2018,05,17,18,42,13.40
2018,05,17,18,43,13.40
2018,05,17,18,44,13.40
2018,05,17,18,45,13.40
2018,05,17,18,46,13.30
2018,05,17,18,47,13.30
2018,05,17,18,48,13.30
2018,05,17,18,49,13.30
2018,05,17,18,50,13.20
2018,05,17,18,51,13.20
2018,05,17,18,52,13.20
2018,05,17,18,53,13.20
2018,05,17,18,54,13.20
2018,05,17,18,55,13.20
2018,05,17,18,56,13.20
2018,05,17,18,57,13.10
2018,05,17,18,58,13.10
2018,05,17,18,59,13.10
2018,05,17,19,00,13.10
2018,05,17,19,01,13.10
2018,05,17,19,02,13.10
2018,05,17,19,03,13.10
2018,05,17,19,04,13.10
2018,05,17,19,05,13.10
2018,05,17,19,06,13.10
2018,05,17,19,07,13.10
2018,05,17,19,08,13.10
2018,05,17,19,09,13.10
2018,05,17,19,10,13.10
2018,05,17,19,11,13.10
2018,05,17,19,12,13.10
2018,05,17,19,13,13.10
2018,05,17,19,14,13.10
2018,05,17,19,15,13.10
2018,05,17,19,16,13.20
2018,05,17,19,17,13.20
2018,05,17,19,18,13.20
2018,05,17,19,19,13.20
2018,05,17,19,20,13.20
2018,05,17,19,21,13.20
2018,05,17,19,22,13.10
2018,05,17,19,23,13.10
2018,05,17,19,24,13.10
2018,05,17,19,25,13.10
2018,05,17,19,26,13.10
2018,05,17,19,27,13.10
2018,05,17,19,28,13.10
2018,05,17,19,29,13.10
2018,05,17,19,30,13.10
2018,05,17,19,31,13.10
